SL-8 DEB

Satellite information

Favourite Embed

Satellite Type and Status

DEBRISIN ORBIT

Key statistics

Satellite SL-8 DEB at a glance.

Uptime

13641

Days in orbit

Revolutions

≈ 14.4

Per day

Orbit

LEO

Low Earth Orbit

Inclination

74.1

Latest

Satellite identification and parameters

Extended collection of information and parameters for SL-8 DEB.

Object identification

Identified? True

Debris? True

Object name: SL-8 DEB

International designator: 1988-053E

Object number (NORAD): 43117

Object ID (CCSDS): 43117

Country: COMMONWEALTH OF INDEPENDENT STATES (CIS)

Current information (Y/N): Y

RCS size: SMALL

Orbital parameters

Period: 100.134 minutes

Inclination: 74.053 deg

SMA: 7143.022 km

Apoapsis: 780.086 km

Periapsis: 749.688 km

RAAN: 29.4487 deg

Eccentricy: 0.00212784

Argument of periapsis: 244.2332 deg

Mean anomaly: 115.6627 deg

Mean motion: 14.38069202 rev/day

Mean motion (dot): 0.00000363 rev/day2

B* drag term: 0.0001281067 1/REarth

Two-line elements (TLE)

Creation date: Oct. 18, 2025, 10:30 a.m.

Reference frame: TEME

Reference center: EARTH

Epoch: Oct. 17, 2025, 11:51 p.m. UTC

TLE line 0: 0 SL-8 DEB

TLE line 1: 1 43117U 88053E 25290.99409523 .00000363 00000-0 12811-3 0 9997

TLE line 2: 2 43117 74.0530 29.4487 0021278 244.2332 115.6627 14.38069202408523

Live tracking on map

Real-time ground track for satellite SL-8 DEB.

In-orbit conjunctions

A list of the most updated potential collisions computed for object SL-8 DEB.

Target Orbit TCA Probability of collision Miss distance Type
COSMOS 1275 DEB LEO 2025-05-10 20:41:52 0.0002110055 140.0 (m) DEBRIS
SL-8 DEB LEO 2024-08-24 01:34:15 0.0001941724 87.0 (m) DEBRIS

Associated space launch

Military communications satellite

SL-8 DEB was lifted into orbit during the mission ‘Kosmos-3M | Strela-2M 45’, on board a Kosmos-3M space rocket.

The launch took place on June 21, 1988, 4:26 p.m. from 133/3 (133L).

For more information about the launch, click the button.

Launch to space Kosmos-3M | Strela-2M 45
Kosmos-3M | Strela-2M 45

Agency: N/A

Status: Launch Successful

Launch date: June 21, 1988, 4:26 p.m. UTC

Rocket: Kosmos-3M

Launch pad: 133/3 (133L)

Location: Plesetsk Cosmodrome, Russian Federation

...

Latest news about this satellite

There are no fresh news available about this satellite. Check back as we update our databases every day.


Newsletter sign-up

Weekly statistics, charts and insights to help you stay on top of the space industry.